Regional Weather Roundup
Issued by NWS Glasgow, MT

Home | Current Version | Previous Version | Text Only | Print | Product List | Glossary On
Versions: 1 2 3 4 5 6 7 8 9 10 11 12 13 14 15 16 17 18 19 20 21 22 23 24 25 26 27 28 29 30 31 32 33 34 35 36 37 38 39 40 41 42 43 44 45 46 47 48 49 50
000
ASUS45 KGGW 270315
RWRGGW
HOURLY REGIONAL WEATHER ROUNDUP FOR NORTHEAST MONTANA
NATIONAL WEATHER SERVICE GLASGOW MONTANA
900 PM MDT THU APR 26 2018

NOTE: "FAIR" INDICATES FEW OR NO CLOUDS BELOW 12,000 FEET WITH NO
SIGNIFICANT WEATHER AND/OR OBSTRUCTIONS TO VISISBILITY.

NORTHEAST MONTANA


CITY           SKY/WX    TMP DP  RH WIND       PRES   REMARKS
GLASGOW        CLEAR     60  32  34 W7        30.00R
PLENTYWOOD       N/A     58  28  32 N15G29      N/A
WOLF POINT     CLEAR     58  31  35 W8        29.99R
JORDAN           N/A     50  36  58 CALM      30.05R
WINNETT          N/A     55  34  45 SW5         N/A
SIDNEY         CLEAR     56  31  38 W13       29.98S
GLENDIVE       CLEAR     51  33  50 W8        30.04S
MALTA            N/A     56  34  43 SW6         N/A

FORT PECK REPORTS


CITY           SKY/WX    TMP DP  RH WIND       PRES   REMARKS
FORT PECK        N/A     54  32  43 SW12G20     N/A
THE PINES        N/A     62  28  27 W5G14       N/A

SOUTHEAST MONTANA


CITY           SKY/WX    TMP DP  RH WIND       PRES   REMARKS
BILLINGS       CLEAR     62  31  31 SW7       30.10R
MILES CITY     CLEAR     59  36  42 W3        30.06R
BAKER          CLEAR     51  36  56 W12       30.07S
LIVINGSTON     CLEAR     48  34  58 S7        30.12R

CENTRAL MONTANA


CITY           SKY/WX    TMP DP  RH WIND       PRES   REMARKS
HAVRE          CLEAR     63  28  26 N3        30.04R
LEWISTOWN      CLEAR     56  30  37 S5        30.11R
GREAT FALLS    CLEAR     59  29  31 SE5       30.07S
CUT BANK       CLEAR     57  25  29 W9        30.07S
HELENA         CLEAR     62  36  37 SW6       30.08S
BUTTE          CLEAR     57  27  31 S8        30.14S
BOZEMAN        CLEAR     46  32  58 SE8       30.12S

WESTERN MONTANA


CITY           SKY/WX    TMP DP  RH WIND       PRES   REMARKS
MISSOULA       CLEAR     64  37  36 N7        30.02S
KALISPELL      NOT AVBL

NORTH DAKOTA


CITY           SKY/WX    TMP DP  RH WIND       PRES   REMARKS
WILLISTON      CLEAR     58  32  37 W10       29.94S
DICKINSON      CLEAR     46  27  47 W8        29.99R
MINOT          CLEAR     61  29  29 W15       29.87S
BISMARCK       CLEAR     56  30  37 W7        29.95S

SOUTHERN SASKATCHEWAN


CITY           SKY/WX    TMP DP  RH WIND       PRES   REMARKS
REGINA         PTCLDY    55  27  33 N12G18    29.98R
ESTEVAN        PTCLDY    52  30  43 NW10      29.92R
SWIFT CURRENT  CLEAR     54  30  40 N7        30.03R




USA.gov is the U.S. government's official web portal to all federal, state and local government web resources and services.